Location: Arbon
(43.0005°N, 0.7472°E)
Time: 10:28:36
(UTC+00:00)

Cosmos 1975 Rocket - Pass Details

Date: 22 April 2026
Orbit: 597 x 626 km, 82.5° (Epoch: 15 May)

Event Time Altitude Azimuth Distance (km) Brightness Sun altitude
Rises 20:29:31 0° 3° (N) 2,912 7.0 -17.3°
Reaches altitude 10° 20:32:06 10° 16° (NNE) 1,996 5.9 -17.7°
Maximum altitude 20:35:47 25° 73° (ENE) 1,241 4.3 -18.2°
Enters shadow 20:36:00 25° 78° (ENE) 1,244 4.2 -18.3°
